Watertown, WI

2:06 AM CDT on March 23, 2017 (GMT -0500)
Watertown Municipal

Weather History for KRYV - October, 2014

Change the Weather History Date:

Monday, October 27, 2014

  Actual Average Record
Temperature  
Mean Temperature 62 °F -  
Max Temperature 74 °F 57 °F 78 °F (1927)
Min Temperature 50 °F 38 °F 17 °F (1936)
Degree Days  
Heating Degree Days 3    
Growing Degree Days 12 (Base 50)    
Moisture  
Dew Point 51 °F    
Average Humidity 68    
Maximum Humidity 76    
Minimum Humidity 59    
Precipitation  
Precipitation 0.00 in - - ()
Sea Level Pressure  
Sea Level Pressure 29.62 in    
Wind  
Wind Speed 9 mph (South)    
Max Wind Speed 14 mph    
Max Gust Speed 24 mph    
Visibility 10 miles    
Events Rain , Thunderstorm    
Averages and records for this station are not official NWS values.
T = Trace of Precipitation, MM = Missing Value Source: NWS Daily Summary

Daily Weather History Graph

Daily Weather History Graph

Search for Another Location

Airport or City:

Trip Planner

Search our weather history database for the weather conditions in past years. The results will help you decide how hot, cold, wet, or windy it might be!

Date:

Astronomy

Oct. 27, 2014 Rise Set
Actual Time 7:23 AM CDT 5:53 PM CDT
Civil Twilight 6:54 AM CDT 6:22 PM CDT
Nautical Twilight 6:20 AM CDT 6:56 PM CDT
Astronomical Twilight 5:47 AM CDT 7:29 PM CDT
Moon 11:01 AM CDT (10/27) 8:56 PM CDT (10/27)
Length of Visible Light 11h 28m
Length of Day
10h 30m
Waxing Crescent, 15% of the Moon is Illuminated
Oct 27
Waxing Crescent
Oct 30
First Quarter
Nov 6
Full
Nov 14
Last Quarter
Nov 22
New

Hourly Weather History & Observations

Time (CDT) Temp. Dew Point Humidity Pressure Visibility Wind Dir Wind Speed Gust Speed Precip Events Conditions
12:15 AM 51.4 °F 39.2 °F 63% 29.82 in 10.0 mi ESE 8.1 mph - N/A   Overcast
12:35 AM 51.4 °F 39.4 °F 63% 29.81 in 10.0 mi ESE 8.1 mph - N/A   Overcast
12:55 AM 51.4 °F 39.2 °F 63% 29.80 in 10.0 mi ESE 9.2 mph - N/A   Scattered Clouds
1:15 AM 50.5 °F 39.9 °F 67% 29.79 in 10.0 mi ESE 9.2 mph - N/A Thunderstorm Clear
1:35 AM 50.9 °F 40.1 °F 67% 29.78 in 10.0 mi ESE 9.2 mph - N/A   Scattered Clouds
1:55 AM 51.6 °F 40.1 °F 65% 29.77 in 10.0 mi ESE 10.4 mph - N/A   Mostly Cloudy
2:15 AM 50.9 °F 42.1 °F 72% 29.76 in 10.0 mi ESE 8.1 mph - N/A Rain , Thunderstorm Light Thunderstorms and Rain
2:35 AM 51.1 °F 42.3 °F 72% 29.74 in 10.0 mi ESE 10.4 mph 19.6 mph N/A Thunderstorm Overcast
2:55 AM 51.3 °F 40.8 °F 67% 29.72 in 10.0 mi ESE 10.4 mph 16.1 mph N/A   Scattered Clouds
3:15 AM 51.4 °F 41.0 °F 68% 29.71 in 10.0 mi ESE 8.1 mph - N/A   Mostly Cloudy
3:35 AM 51.3 °F 40.6 °F 67% 29.71 in 10.0 mi ESE 9.2 mph - N/A   Mostly Cloudy
3:55 AM 51.1 °F 40.6 °F 67% 29.70 in 10.0 mi SE 6.9 mph - N/A   Scattered Clouds
4:15 AM 50.9 °F 41.0 °F 69% 29.69 in 10.0 mi SE 8.1 mph - N/A   Clear
4:35 AM 50.9 °F 41.4 °F 70% 29.69 in 10.0 mi ESE 8.1 mph - N/A   Clear
4:55 AM 51.1 °F 41.9 °F 71% 29.69 in 10.0 mi SE 9.2 mph - N/A   Clear
5:15 AM 50.9 °F 42.3 °F 72% 29.68 in 10.0 mi SE 8.1 mph - N/A   Clear
5:35 AM 50.9 °F 42.3 °F 72% 29.67 in 10.0 mi SE 5.8 mph - N/A   Clear
5:55 AM 50.9 °F 42.6 °F 73% 29.67 in 10.0 mi SE 5.8 mph - N/A   Scattered Clouds
6:15 AM 50.9 °F 42.8 °F 74% 29.66 in 10.0 mi SE 8.1 mph - N/A   Scattered Clouds
6:35 AM 50.4 °F 42.8 °F 75% 29.65 in 10.0 mi SE 8.1 mph - N/A   Scattered Clouds
6:55 AM 50.2 °F 42.6 °F 75% 29.65 in 10.0 mi SE 6.9 mph - N/A   Clear
7:15 AM 50.5 °F 42.6 °F 74% 29.64 in 10.0 mi SE 5.8 mph - N/A   Clear
7:35 AM 50.9 °F 42.8 °F 74% 29.64 in 10.0 mi ESE 5.8 mph - N/A   Clear
7:55 AM 50.9 °F 43.0 °F 74% 29.65 in 10.0 mi SE 4.6 mph - N/A   Clear
8:15 AM 51.4 °F 43.3 °F 74% 29.65 in 10.0 mi SE 4.6 mph - N/A   Clear
8:35 AM 53.2 °F 44.1 °F 71% 29.64 in 10.0 mi ESE 5.8 mph - N/A   Clear
8:55 AM 55.4 °F 45.7 °F 70% 29.64 in 10.0 mi SE 3.5 mph - N/A   Clear
9:15 AM 57.7 °F 48.0 °F 70% 29.64 in 10.0 mi SSE 6.9 mph - N/A   Scattered Clouds
9:35 AM 59.9 °F 50.0 °F 70% 29.62 in 10.0 mi SSE 6.9 mph - N/A   Scattered Clouds
9:55 AM 62.4 °F 52.9 °F 71% 29.62 in 10.0 mi SSE 9.2 mph - N/A   Clear
10:15 AM 64.8 °F 55.2 °F 71% 29.62 in 10.0 mi South 9.2 mph - N/A   Clear
10:35 AM 66.0 °F 56.1 °F 70% 29.61 in 10.0 mi South 9.2 mph - N/A   Clear
10:55 AM 67.1 °F 57.2 °F 70% 29.61 in 10.0 mi SSW 11.5 mph 17.3 mph N/A   Clear
11:15 AM 68.7 °F 58.1 °F 69% 29.60 in 10.0 mi South 10.4 mph - N/A   Clear
11:55 AM 69.6 °F 58.6 °F 68% 29.59 in 10.0 mi South 13.8 mph - N/A   Clear
12:15 PM 69.4 °F 59.0 °F 69% 29.58 in 10.0 mi South 10.4 mph 16.1 mph N/A   Clear
12:35 PM 70.0 °F 59.2 °F 68% 29.57 in 10.0 mi SSW 13.8 mph - N/A   Scattered Clouds
12:55 PM 71.2 °F 59.5 °F 66% 29.57 in 10.0 mi SSW 12.7 mph - N/A   Clear
1:15 PM 71.1 °F 59.4 °F 66% 29.56 in 10.0 mi South 11.5 mph 16.1 mph N/A   Scattered Clouds
1:35 PM 70.9 °F 59.4 °F 67% 29.55 in 10.0 mi SSW 9.2 mph - N/A   Mostly Cloudy
1:55 PM 71.2 °F 59.4 °F 66% 29.55 in 10.0 mi SSW 11.5 mph - N/A   Mostly Cloudy
2:15 PM 71.8 °F 59.9 °F 66% 29.55 in 10.0 mi SW 9.2 mph - N/A   Overcast
2:35 PM 73.6 °F 59.7 °F 62% 29.54 in 10.0 mi SSW 13.8 mph 19.6 mph N/A   Overcast
2:55 PM 73.8 °F 59.4 °F 61% 29.53 in 10.0 mi SSW 13.8 mph 20.7 mph N/A   Mostly Cloudy
3:15 PM 73.6 °F 58.8 °F 60% 29.53 in 10.0 mi SSW 13.8 mph 24.2 mph N/A   Scattered Clouds
3:35 PM 74.3 °F 59.0 °F 59% 29.53 in 10.0 mi South 13.8 mph 20.7 mph N/A   Scattered Clouds
3:55 PM 73.0 °F 58.6 °F 61% 29.53 in 10.0 mi SSW 9.2 mph - N/A   Scattered Clouds
4:15 PM 73.4 °F 59.2 °F 61% 29.52 in 10.0 mi South 9.2 mph - N/A   Scattered Clouds
4:35 PM 73.4 °F 59.2 °F 61% 29.52 in 10.0 mi SSW 4.6 mph - N/A   Scattered Clouds
4:55 PM 72.7 °F 58.5 °F 61% 29.53 in 10.0 mi SSW 11.5 mph - N/A   Clear
5:15 PM 72.0 °F 58.3 °F 62% 29.53 in 10.0 mi SSW 9.2 mph - N/A   Scattered Clouds
5:35 PM 70.7 °F 58.1 °F 64% 29.54 in 10.0 mi SSW 4.6 mph - N/A   Mostly Cloudy
5:55 PM 70.7 °F 58.1 °F 64% 29.55 in 10.0 mi SSW 8.1 mph - N/A   Mostly Cloudy
6:15 PM 70.3 °F 57.6 °F 64% 29.55 in 10.0 mi SSW 6.9 mph - N/A   Scattered Clouds
6:35 PM 69.3 °F 57.2 °F 65% 29.55 in 10.0 mi SSW 6.9 mph - N/A   Scattered Clouds
6:55 PM 68.7 °F 57.4 °F 67% 29.56 in 10.0 mi South 4.6 mph - N/A   Mostly Cloudy
7:15 PM 68.9 °F 57.6 °F 67% 29.56 in 10.0 mi South 5.8 mph - N/A   Overcast
7:35 PM 68.4 °F 57.7 °F 69% 29.56 in 10.0 mi South 6.9 mph - N/A   Overcast
7:55 PM 68.5 °F 57.4 °F 67% 29.56 in 10.0 mi SSW 6.9 mph - N/A   Mostly Cloudy
8:15 PM 68.7 °F 57.2 °F 67% 29.56 in 10.0 mi SSW 10.4 mph - N/A   Overcast
8:35 PM 68.5 °F 56.8 °F 66% 29.56 in 10.0 mi SSW 10.4 mph - N/A   Overcast
8:55 PM 67.5 °F 56.7 °F 68% 29.55 in 10.0 mi SSW 9.2 mph - N/A   Scattered Clouds
9:15 PM 66.2 °F 56.7 °F 71% 29.56 in 10.0 mi SSW 8.1 mph - N/A   Clear
9:35 PM 65.8 °F 56.5 °F 72% 29.55 in 10.0 mi South 9.2 mph - N/A   Clear
9:55 PM 66.2 °F 56.7 °F 71% 29.56 in 10.0 mi South 9.2 mph - N/A   Scattered Clouds
10:15 PM 66.2 °F 56.7 °F 71% 29.55 in 10.0 mi SSW 11.5 mph - N/A   Mostly Cloudy
10:35 PM 66.4 °F 56.7 °F 71% 29.55 in 10.0 mi SSW 13.8 mph 20.7 mph N/A   Mostly Cloudy
10:55 PM 66.4 °F 56.7 °F 71% 29.55 in 10.0 mi SSW 12.7 mph 21.9 mph N/A   Overcast
11:15 PM 65.7 °F 56.7 °F 73% 29.55 in 10.0 mi SSW 12.7 mph 17.3 mph N/A   Scattered Clouds
11:35 PM 64.9 °F 57.0 °F 75% 29.56 in 10.0 mi SW 10.4 mph - N/A   Scattered Clouds
11:55 PM 64.8 °F 57.2 °F 76% 29.55 in 10.0 mi SW 12.7 mph - N/A   Scattered Clouds